User: anonymous   Login
Location: Eimen
(51.8766°N, 9.7806°E)
Time: 23:53:52
(UTC+00:00)
Language:

CZ-2C R/B - Orbit

View from above orbital plane
View from above orbital plane
View from above satellite
View from above satellite

Ground track
Ground track

The orbit data is extracted from the following two-line orbital elements,

1 31114U 07010B   24194.62612469  .00000284  00000-0  15091-3 0  9997
2 31114  98.3360 329.2112 0058232 254.0311 105.4446 14.19809814893848
Epoch (UTC): 12 July 2024 15:01:37
Eccentricity: 0.0058232
inclination: 98.3360°
perigee height: 784 km
apogee height: 868 km
right ascension of ascending node: 329.2112°
argument of perigee: 254.0311°
revolutions per day: 14.19809814
mean anomaly at epoch: 105.4446°
orbit number at epoch: 89384

The dashed part of the orbit path shows where the satellite is in the earth's shadow,  

DLR